Location: Corralito
(10.2667°N, 66.9500°W)
Time: 23:22:24
(UTC+00:00)

YAOGAN 3 - Pass Details

Date: 04 December 2023
Orbit: 615 x 616 km, 97.9° (Epoch: 01 March)

Event Time Altitude Azimuth Distance (km) Brightness Sun altitude
Rises 22:34:07 0° 135° (SE) 2,873 7.7 -7.5°
Reaches altitude 10° 22:37:03 10° 113° (ESE) 1,968 6.7 -8.2°
Maximum altitude 22:39:37 16° 76° (ENE) 1,625 6.1 -8.8°
Drops below altitude 10° 22:42:11 10° 39° (NE) 1,967 6.6 -9.4°
Sets 22:45:06 0° 17° (NNE) 2,871 7.6 -10.1°
